[Date Prev][Date Next][Thread Prev][Thread Next] - [Date Index][Thread Index][Author Index]
2 Line ISS Keps 9-12
- Subject: [sarex] 2 Line ISS Keps 9-12
- From: "Dave Larsen PhD" <doc@xxxxxxxxxxx>
- Date: Sun, 12 Sep 2004 03:38:01 -0700
ISS
1 25544U 98067A 04256.18769676 .00016094 00000-0 13807-3 0 6727
2 25544 51.6336 241.6618 0005548 138.9223 40.6773 15.69552242331986
----
Via the sarex mailing list at AMSAT.ORG courtesy of AMSAT-NA.
To unsubscribe, send "unsubscribe sarex" to Majordomo@amsat.org
AMSAT Home